Time,TemperatureF,DewpointF,PressureIn,WindDirection,WindDirectionDegrees,WindSpeedMPH,WindSpeedGustMPH,Humidity,HourlyPrecipIn,Conditions,Clouds,dailyrainin,SolarRadiationWatts/m^2,SoftwareType,DateUTC
2013-09-15 00:06:00,76.7,72.0,29.92,ESE,107,3.0,4.0,84,0.00,,,0.00,0,weatherlink.com 1.10,2013-09-15 04:06:00,
2013-09-15 00:22:00,76.7,72.0,29.92,ESE,107,0.0,1.0,84,0.00,,,0.00,0,weatherlink.com 1.10,2013-09-15 04:22:00,
2013-09-15 00:37:00,76.3,71.0,29.92,ESE,107,0.0,1.0,83,0.00,,,0.00,0,weatherlink.com 1.10,2013-09-15 04:37:00,
2013-09-15 00:52:00,76.5,71.0,29.92,ESE,107,0.0,0.0,82,0.00,,,0.00,0,weatherlink.com 1.10,2013-09-15 04:52:00,
2013-09-15 01:07:00,76.3,70.0,29.91,ESE,107,0.0,0.0,82,0.00,,,0.00,0,weatherlink.com 1.10,2013-09-15 05:07:00,
2013-09-15 01:22:00,76.3,70.0,29.91,ESE,107,0.0,0.0,82,0.00,,,0.00,0,weatherlink.com 1.10,2013-09-15 05:22:00,
2013-09-15 01:37:00,76.1,71.0,29.91,ESE,107,0.0,0.0,83,0.00,,,0.00,0,weatherlink.com 1.10,2013-09-15 05:37:00,
2013-09-15 01:53:00,76.0,71.0,29.91,ESE,107,0.0,0.0,84,0.00,,,0.00,0,weatherlink.com 1.10,2013-09-15 05:53:00,
2013-09-15 02:08:00,75.8,71.0,29.91,ESE,107,0.0,0.0,84,0.00,,,0.00,0,weatherlink.com 1.10,2013-09-15 06:08:00,
2013-09-15 02:22:00,75.6,71.0,29.91,ESE,107,0.0,0.0,85,0.00,,,0.00,0,weatherlink.com 1.10,2013-09-15 06:22:00,
2013-09-15 02:38:00,75.3,71.0,29.91,ESE,107,0.0,0.0,85,0.00,,,0.00,0,weatherlink.com 1.10,2013-09-15 06:38:00,
2013-09-15 02:54:00,75.1,70.0,29.91,ESE,107,0.0,0.0,85,0.00,,,0.00,0,weatherlink.com 1.10,2013-09-15 06:54:00,
2013-09-15 03:07:00,74.9,71.0,29.90,ESE,107,0.0,0.0,86,0.00,,,0.00,0,weatherlink.com 1.10,2013-09-15 07:07:00,
2013-09-15 03:22:00,74.7,71.0,29.90,ESE,107,0.0,0.0,87,0.00,,,0.00,0,weatherlink.com 1.10,2013-09-15 07:22:00,
2013-09-15 03:37:00,74.7,71.0,29.91,ESE,107,0.0,0.0,88,0.00,,,0.00,0,weatherlink.com 1.10,2013-09-15 07:37:00,
2013-09-15 03:52:00,74.7,71.0,29.91,ESE,107,0.0,0.0,88,0.00,,,0.00,0,weatherlink.com 1.10,2013-09-15 07:52:00,
2013-09-15 04:07:00,74.6,71.0,29.91,ESE,107,0.0,0.0,88,0.00,,,0.00,0,weatherlink.com 1.10,2013-09-15 08:07:00,
2013-09-15 04:22:00,74.2,71.0,29.91,ESE,107,0.0,0.0,89,0.00,,,0.00,0,weatherlink.com 1.10,2013-09-15 08:22:00,
2013-09-15 04:37:00,74.4,71.0,29.91,ESE,107,0.0,0.0,89,0.00,,,0.00,0,weatherlink.com 1.10,2013-09-15 08:37:00,
2013-09-15 04:52:00,74.6,72.0,29.92,ESE,107,0.0,0.0,90,0.00,,,0.00,0,weatherlink.com 1.10,2013-09-15 08:52:00,
2013-09-15 05:07:00,74.6,72.0,29.93,ESE,107,0.0,0.0,91,0.00,,,0.00,0,weatherlink.com 1.10,2013-09-15 09:07:00,
2013-09-15 05:22:00,74.6,72.0,29.93,ESE,107,0.0,0.0,91,0.00,,,0.00,0,weatherlink.com 1.10,2013-09-15 09:22:00,
2013-09-15 05:37:00,74.6,72.0,29.93,ESE,107,0.0,0.0,91,0.00,,,0.00,0,weatherlink.com 1.10,2013-09-15 09:37:00,
2013-09-15 05:52:00,74.4,72.0,29.93,ESE,107,0.0,0.0,92,0.00,,,0.00,0,weatherlink.com 1.10,2013-09-15 09:52:00,
2013-09-15 06:07:00,74.2,72.0,29.93,ESE,107,0.0,0.0,92,0.00,,,0.00,0,weatherlink.com 1.10,2013-09-15 10:07:00,
2013-09-15 06:22:00,74.2,72.0,29.93,ESE,107,0.0,0.0,92,0.00,,,0.00,0,weatherlink.com 1.10,2013-09-15 10:22:00,
2013-09-15 06:37:00,74.2,72.0,29.94,ESE,107,0.0,0.0,92,0.00,,,0.00,0,weatherlink.com 1.10,2013-09-15 10:37:00,
2013-09-15 06:52:00,74.0,72.0,29.94,ESE,107,0.0,0.0,92,0.00,,,0.00,0,weatherlink.com 1.10,2013-09-15 10:52:00,
2013-09-15 07:07:00,74.0,72.0,29.94,ESE,107,0.0,0.0,92,0.00,,,0.00,0,weatherlink.com 1.10,2013-09-15 11:07:00,
2013-09-15 07:22:00,73.9,72.0,29.95,ESE,107,0.0,0.0,93,0.00,,,0.00,5,weatherlink.com 1.10,2013-09-15 11:22:00,
2013-09-15 07:37:00,73.9,72.0,29.96,ESE,107,0.0,0.0,93,0.00,,,0.00,26,weatherlink.com 1.10,2013-09-15 11:37:00,
2013-09-15 07:53:00,74.2,72.0,29.96,ESE,107,0.0,0.0,93,0.00,,,0.00,69,weatherlink.com 1.10,2013-09-15 11:53:00,
2013-09-15 08:08:00,75.3,74.0,29.96,ESE,107,0.0,0.0,94,0.00,,,0.00,111,weatherlink.com 1.10,2013-09-15 12:08:00,
2013-09-15 08:23:00,76.7,75.0,29.96,ESE,107,0.0,1.0,95,0.00,,,0.00,156,weatherlink.com 1.10,2013-09-15 12:23:00,
2013-09-15 08:38:00,78.1,76.0,29.97,ESE,107,0.0,0.0,94,0.00,,,0.00,214,weatherlink.com 1.10,2013-09-15 12:38:00,
2013-09-15 08:53:00,79.2,77.0,29.98,ESE,107,0.0,1.0,92,0.00,,,0.00,264,weatherlink.com 1.10,2013-09-15 12:53:00,
2013-09-15 09:08:00,80.9,78.0,29.98,ESE,107,0.0,1.0,89,0.00,,,0.00,316,weatherlink.com 1.10,2013-09-15 13:08:00,
2013-09-15 09:23:00,82.6,77.0,29.98,ESE,107,0.0,1.0,82,0.00,,,0.00,367,weatherlink.com 1.10,2013-09-15 13:23:00,
2013-09-15 09:38:00,84.3,76.0,29.99,ESE,107,0.0,1.0,76,0.00,,,0.00,413,weatherlink.com 1.10,2013-09-15 13:38:00,
2013-09-15 09:53:00,85.5,76.0,29.98,ESE,105,0.0,3.0,72,0.00,,,0.00,459,weatherlink.com 1.10,2013-09-15 13:53:00,
2013-09-15 10:08:00,86.1,75.0,29.98,ESE,107,0.0,1.0,69,0.00,,,0.00,236,weatherlink.com 1.10,2013-09-15 14:08:00,
2013-09-15 10:23:00,86.3,75.0,29.98,ESE,105,0.0,4.0,68,0.00,,,0.00,550,weatherlink.com 1.10,2013-09-15 14:23:00,
2013-09-15 10:38:00,86.5,74.0,29.98,ESE,105,0.0,2.0,66,0.00,,,0.00,265,weatherlink.com 1.10,2013-09-15 14:38:00,
2013-09-15 10:53:00,86.7,74.0,29.98,ESE,107,0.0,1.0,65,0.00,,,0.00,132,weatherlink.com 1.10,2013-09-15 14:53:00,
2013-09-15 11:08:00,87.0,74.0,29.98,SE,126,0.0,5.0,65,0.00,,,0.00,113,weatherlink.com 1.10,2013-09-15 15:08:00,
2013-09-15 11:23:00,87.2,74.0,29.98,East,101,0.0,5.0,64,0.00,,,0.00,132,weatherlink.com 1.10,2013-09-15 15:23:00,
2013-09-15 11:38:00,87.4,73.0,29.98,ESE,105,1.0,8.0,62,0.00,,,0.00,144,weatherlink.com 1.10,2013-09-15 15:38:00,
2013-09-15 11:53:00,87.4,73.0,29.98,ESE,105,0.0,6.0,62,0.00,,,0.00,127,weatherlink.com 1.10,2013-09-15 15:53:00,
2013-09-15 12:08:00,88.0,73.0,29.98,ENE,73,0.0,5.0,62,0.00,,,0.00,239,weatherlink.com 1.10,2013-09-15 16:08:00,
2013-09-15 12:23:00,88.8,73.0,29.98,ESE,119,3.0,8.0,60,0.00,,,0.00,861,weatherlink.com 1.10,2013-09-15 16:23:00,
2013-09-15 12:38:00,89.5,73.0,29.98,SE,132,0.0,5.0,59,0.00,,,0.00,236,weatherlink.com 1.10,2013-09-15 16:38:00,
2013-09-15 12:54:00,90.5,72.0,29.98,ESE,113,0.0,11.0,55,0.00,,,0.00,898,weatherlink.com 1.10,2013-09-15 16:54:00,
2013-09-15 13:09:00,90.3,72.0,29.98,ESE,107,1.0,6.0,55,0.00,,,0.00,865,weatherlink.com 1.10,2013-09-15 17:09:00,
2013-09-15 13:24:00,90.5,72.0,29.98,ESE,104,1.0,9.0,54,0.00,,,0.00,940,weatherlink.com 1.10,2013-09-15 17:24:00,
2013-09-15 13:39:00,90.7,72.0,29.98,ESE,107,2.0,8.0,54,0.00,,,0.00,937,weatherlink.com 1.10,2013-09-15 17:39:00,
2013-09-15 13:54:00,90.3,73.0,29.99,ESE,104,3.0,9.0,57,0.00,,,0.00,902,weatherlink.com 1.10,2013-09-15 17:54:00,
2013-09-15 14:09:00,90.7,72.0,29.98,SSE,161,0.0,9.0,54,0.00,,,0.00,865,weatherlink.com 1.10,2013-09-15 18:09:00,
2013-09-15 14:24:00,90.7,73.0,29.98,SE,131,0.0,8.0,56,0.00,,,0.00,812,weatherlink.com 1.10,2013-09-15 18:24:00,
2013-09-15 14:39:00,90.7,72.0,29.97,SSE,152,0.0,10.0,54,0.00,,,0.00,812,weatherlink.com 1.10,2013-09-15 18:39:00,
2013-09-15 14:54:00,90.1,73.0,29.97,ESE,117,0.0,7.0,57,0.00,,,0.00,824,weatherlink.com 1.10,2013-09-15 18:54:00,
2013-09-15 15:09:00,89.3,73.0,29.96,ESE,121,0.0,7.0,58,0.00,,,0.00,754,weatherlink.com 1.10,2013-09-15 19:09:00,
2013-09-15 15:24:00,89.5,73.0,29.96,SE,126,0.0,7.0,58,0.00,,,0.00,796,weatherlink.com 1.10,2013-09-15 19:24:00,
2013-09-15 15:39:00,88.8,72.0,29.95,SSE,162,1.0,11.0,58,0.00,,,0.00,722,weatherlink.com 1.10,2013-09-15 19:39:00,
2013-09-15 15:54:00,89.7,73.0,29.95,ESE,116,3.0,7.0,58,0.00,,,0.00,682,weatherlink.com 1.10,2013-09-15 19:54:00,
2013-09-15 16:09:00,89.3,72.0,29.95,SSE,148,2.0,9.0,57,0.00,,,0.00,617,weatherlink.com 1.10,2013-09-15 20:09:00,
2013-09-15 16:24:00,89.0,72.0,29.94,SE,132,4.0,7.0,58,0.00,,,0.00,592,weatherlink.com 1.10,2013-09-15 20:24:00,
2013-09-15 16:39:00,88.4,72.0,29.93,SE,130,0.0,8.0,58,0.00,,,0.00,526,weatherlink.com 1.10,2013-09-15 20:39:00,
2013-09-15 16:54:00,88.6,71.0,29.94,East,86,0.0,10.0,56,0.00,,,0.00,480,weatherlink.com 1.10,2013-09-15 20:54:00,
2013-09-15 17:24:00,88.0,73.0,29.95,ESE,105,0.0,8.0,61,0.00,,,0.00,374,weatherlink.com 1.10,2013-09-15 21:24:00,
2013-09-15 17:39:00,87.6,73.0,29.95,SE,126,4.0,9.0,62,0.00,,,0.00,60,weatherlink.com 1.10,2013-09-15 21:39:00,
2013-09-15 17:54:00,87.2,74.0,29.95,NE,52,0.0,7.0,64,0.00,,,0.00,53,weatherlink.com 1.10,2013-09-15 21:54:00,
2013-09-15 18:09:00,86.3,73.0,29.95,ESE,104,0.0,7.0,64,0.00,,,0.00,49,weatherlink.com 1.10,2013-09-15 22:09:00,
2013-09-15 18:24:00,85.9,73.0,29.96,SE,140,3.0,10.0,65,0.00,,,0.00,32,weatherlink.com 1.10,2013-09-15 22:24:00,
2013-09-15 18:39:00,85.3,74.0,29.96,SE,126,0.0,6.0,68,0.00,,,0.00,47,weatherlink.com 1.10,2013-09-15 22:39:00,
2013-09-15 18:54:00,84.9,74.0,29.96,SE,131,0.0,5.0,69,0.00,,,0.00,30,weatherlink.com 1.10,2013-09-15 22:54:00,
2013-09-15 19:09:00,84.5,74.0,29.96,SE,128,0.0,5.0,70,0.00,,,0.00,19,weatherlink.com 1.10,2013-09-15 23:09:00,
2013-09-15 19:24:00,84.0,74.0,29.96,SE,126,0.0,4.0,71,0.00,,,0.00,7,weatherlink.com 1.10,2013-09-15 23:24:00,
2013-09-15 19:39:00,83.4,74.0,29.96,SE,126,0.0,1.0,72,0.00,,,0.00,0,weatherlink.com 1.10,2013-09-15 23:39:00,
2013-09-15 19:54:00,83.0,74.0,29.96,SE,126,0.0,1.0,73,0.00,,,0.00,0,weatherlink.com 1.10,2013-09-15 23:54:00,
2013-09-15 20:09:00,82.4,74.0,29.97,SE,126,0.0,1.0,75,0.00,,,0.00,0,weatherlink.com 1.10,2013-09-16 00:09:00,
2013-09-15 20:24:00,82.0,74.0,29.97,SE,126,0.0,1.0,76,0.00,,,0.00,0,weatherlink.com 1.10,2013-09-16 00:24:00,
2013-09-15 20:39:00,81.4,74.0,29.98,SE,126,0.0,1.0,77,0.00,,,0.00,0,weatherlink.com 1.10,2013-09-16 00:39:00,
2013-09-15 20:54:00,81.2,73.0,29.98,SE,126,0.0,2.0,77,0.00,,,0.00,0,weatherlink.com 1.10,2013-09-16 00:54:00,
2013-09-15 21:09:00,80.9,73.0,29.98,SE,126,0.0,3.0,78,0.00,,,0.00,0,weatherlink.com 1.10,2013-09-16 01:09:00,
2013-09-15 21:24:00,80.9,74.0,29.99,SE,126,0.0,1.0,79,0.00,,,0.00,0,weatherlink.com 1.10,2013-09-16 01:24:00,
2013-09-15 21:39:00,80.5,73.0,30.00,SE,126,0.0,0.0,79,0.00,,,0.00,0,weatherlink.com 1.10,2013-09-16 01:39:00,
2013-09-15 21:54:00,80.3,74.0,30.01,SE,126,0.0,0.0,80,0.00,,,0.00,0,weatherlink.com 1.10,2013-09-16 01:54:00,
2013-09-15 22:09:00,80.1,74.0,30.01,SE,126,0.0,0.0,81,0.00,,,0.00,0,weatherlink.com 1.10,2013-09-16 02:09:00,
2013-09-15 22:24:00,79.9,74.0,30.01,SE,126,0.0,0.0,81,0.00,,,0.00,0,weatherlink.com 1.10,2013-09-16 02:24:00,
2013-09-15 22:39:00,79.8,74.0,30.02,SE,126,0.0,0.0,82,0.00,,,0.00,0,weatherlink.com 1.10,2013-09-16 02:39:00,
2013-09-15 22:54:00,79.8,74.0,30.01,SE,126,0.0,0.0,83,0.00,,,0.00,0,weatherlink.com 1.10,2013-09-16 02:54:00,
2013-09-15 23:09:00,79.6,74.0,30.01,SE,126,0.0,0.0,83,0.00,,,0.00,0,weatherlink.com 1.10,2013-09-16 03:09:00,
2013-09-15 23:24:00,79.4,74.0,30.01,SE,126,0.0,0.0,84,0.00,,,0.00,0,weatherlink.com 1.10,2013-09-16 03:24:00,
2013-09-15 23:39:00,79.2,74.0,30.01,SE,126,0.0,0.0,84,0.00,,,0.00,0,weatherlink.com 1.10,2013-09-16 03:39:00,
2013-09-15 23:54:00,78.8,74.0,30.00,SE,126,0.0,0.0,84,0.00,,,0.00,0,weatherlink.com 1.10,2013-09-16 03:54:00,